TimeAKDT,TemperatureF,Dew PointF,Humidity,Sea Level PressureIn,VisibilityMPH,Wind Direction,Wind SpeedMPH,Gust SpeedMPH,PrecipitationIn,Events,Conditions,WindDirDegrees,DateUTC
12:53 AM,62.1,54.0,75,30.21,10.0,SSW,6.9,-,N/A,,Scattered Clouds,200,2013-07-31 08:53:00
1:53 AM,60.1,54.0,80,30.21,10.0,South,3.5,-,N/A,,Scattered Clouds,170,2013-07-31 09:53:00
2:53 AM,57.0,53.1,87,30.22,10.0,South,3.5,-,N/A,,Scattered Clouds,180,2013-07-31 10:53:00
3:53 AM,57.0,53.1,87,30.22,10.0,Calm,Calm,-,N/A,,Scattered Clouds,0,2013-07-31 11:53:00
4:53 AM,57.9,53.1,84,30.21,10.0,SSW,3.5,-,N/A,,Scattered Clouds,200,2013-07-31 12:53:00
5:53 AM,57.9,53.1,84,30.21,10.0,Variable,3.5,-,N/A,,Scattered Clouds,0,2013-07-31 13:53:00
6:53 AM,57.0,53.1,87,30.21,10.0,Calm,Calm,-,N/A,,Mostly Cloudy,0,2013-07-31 14:53:00
7:53 AM,60.1,54.0,80,30.21,10.0,Calm,Calm,-,N/A,,Mostly Cloudy,0,2013-07-31 15:53:00
8:53 AM,62.1,55.0,78,30.21,10.0,NW,3.5,-,N/A,,Mostly Cloudy,320,2013-07-31 16:53:00
9:53 AM,63.0,55.0,75,30.22,10.0,NW,3.5,-,N/A,,Mostly Cloudy,320,2013-07-31 17:53:00
10:53 AM,63.0,55.0,75,30.22,10.0,NW,4.6,-,N/A,,Mostly Cloudy,320,2013-07-31 18:53:00
11:53 AM,66.9,55.9,68,30.21,10.0,Variable,4.6,-,N/A,,Mostly Cloudy,0,2013-07-31 19:53:00
12:53 PM,66.0,55.0,68,30.21,10.0,NW,5.8,-,N/A,,Mostly Cloudy,310,2013-07-31 20:53:00
1:53 PM,68.0,55.9,65,30.19,10.0,NNW,5.8,-,N/A,,Mostly Cloudy,330,2013-07-31 21:53:00
2:53 PM,71.1,55.9,59,30.19,10.0,WNW,5.8,-,N/A,,Scattered Clouds,290,2013-07-31 22:53:00
3:53 PM,69.1,57.0,65,30.18,10.0,NW,6.9,-,N/A,,Scattered Clouds,320,2013-07-31 23:53:00
4:53 PM,70.0,55.9,61,30.17,10.0,WNW,6.9,-,N/A,,Scattered Clouds,300,2013-08-01 00:53:00
5:53 PM,70.0,55.0,59,30.15,10.0,WNW,5.8,-,N/A,,Scattered Clouds,290,2013-08-01 01:53:00
6:53 PM,69.1,55.0,61,30.14,10.0,West,5.8,-,N/A,,Scattered Clouds,260,2013-08-01 02:53:00
7:53 PM,66.9,52.0,59,30.13,10.0,WSW,6.9,-,N/A,,Scattered Clouds,250,2013-08-01 03:53:00
8:53 PM,64.0,52.0,65,30.13,10.0,West,3.5,-,N/A,,Mostly Cloudy,270,2013-08-01 04:53:00
9:53 PM,62.1,54.0,75,30.13,10.0,Calm,Calm,-,N/A,,Mostly Cloudy,0,2013-08-01 05:53:00
10:53 PM,62.1,53.1,72,30.14,10.0,SW,5.8,-,N/A,,Mostly Cloudy,230,2013-08-01 06:53:00
11:53 PM,61.0,53.1,75,30.14,10.0,SW,6.9,-,N/A,,Scattered Clouds,220,2013-08-01 07:53:00